Location: Cumbre Roja
(10.2766°N, 67.0675°W)
Time: 23:20:59
(UTC+00:00)

SAR-Lupe-4 - Pass Details

Date: 18 November 2025
Orbit: 476 x 483 km, 98.1° (Epoch: 03 October)

Event Time Altitude Azimuth Distance (km) Brightness Sun altitude
Rises 22:20:59 0° 169° (S) 2,535 7.3 -5.1°
Reaches altitude 10° 22:23:02 10° 169° (S) 1,656 6.4 -5.6°
Maximum altitude 22:26:35 86° 255° (WSW) 486 3.6 -6.4°
Drops below altitude 10° 22:30:09 10° 347° (NNW) 1,653 6.2 -7.3°
Sets 22:32:12 0° 348° (NNW) 2,531 7.1 -7.7°
